Time,TemperatureF,DewpointF,PressureIn,WindDirection,WindDirectionDegrees,WindSpeedMPH,WindSpeedGustMPH,Humidity,HourlyPrecipIn,Conditions,Clouds,dailyrainin,SolarRadiationWatts/m^2,SoftwareType,DateUTC
2013-12-25 00:00:00,42.5,36.1,28.65,SW,232,10.0,11.0,78,0.00,,,0.00,0,WeatherCatV1.15B25,2013-12-25 00:00:00,
2013-12-25 00:05:00,42.2,35.8,28.65,SW,235,9.0,14.0,78,0.00,,,0.00,0,WeatherCatV1.15B25,2013-12-25 00:05:00,
2013-12-25 00:10:00,42.1,35.7,28.64,SW,228,9.0,17.0,78,0.00,,,0.00,0,WeatherCatV1.15B25,2013-12-25 00:10:00,
2013-12-25 00:15:00,42.0,35.6,28.65,SW,226,10.0,17.0,78,0.00,,,0.00,0,WeatherCatV1.15B25,2013-12-25 00:15:00,
2013-12-25 00:20:00,41.8,35.5,28.65,SW,226,10.0,18.0,78,0.00,,,0.00,0,WeatherCatV1.15B25,2013-12-25 00:20:00,
2013-12-25 00:25:00,41.8,35.5,28.65,SW,229,11.0,15.0,78,0.00,,,0.00,0,WeatherCatV1.15B25,2013-12-25 00:25:00,
2013-12-25 00:30:00,41.8,35.5,28.64,SW,233,10.0,13.0,78,0.00,,,0.00,0,WeatherCatV1.15B25,2013-12-25 00:30:00,
2013-12-25 00:35:00,41.8,35.8,28.64,SW,234,10.0,18.0,79,0.00,,,0.00,0,WeatherCatV1.15B25,2013-12-25 00:35:00,
2013-12-25 00:40:00,42.0,36.0,28.64,SW,235,10.0,13.0,79,0.00,,,0.00,0,WeatherCatV1.15B25,2013-12-25 00:40:00,
2013-12-25 00:45:00,42.0,36.0,28.65,WSW,241,8.0,15.0,79,0.00,,,0.00,0,WeatherCatV1.15B25,2013-12-25 00:45:00,
2013-12-25 00:50:00,42.1,36.1,28.65,WSW,237,8.0,14.0,79,0.00,,,0.00,0,WeatherCatV1.15B25,2013-12-25 00:50:00,
2013-12-25 00:55:00,41.9,35.9,28.65,SW,231,9.0,16.0,79,0.00,,,0.00,0,WeatherCatV1.15B25,2013-12-25 00:55:00,
2013-12-25 01:00:00,41.7,36.0,28.65,SW,231,8.0,11.0,80,0.00,,,0.00,0,WeatherCatV1.15B25,2013-12-25 01:00:00,
2013-12-25 01:05:00,41.6,35.9,28.65,SW,227,7.0,14.0,80,0.00,,,0.00,0,WeatherCatV1.15B25,2013-12-25 01:05:00,
2013-12-25 01:10:00,41.6,35.9,28.65,SW,228,7.0,15.0,80,0.00,,,0.00,0,WeatherCatV1.15B25,2013-12-25 01:10:00,
2013-12-25 01:15:00,41.5,35.5,28.65,SW,228,8.0,14.0,79,0.00,,,0.00,0,WeatherCatV1.15B25,2013-12-25 01:15:00,
2013-12-25 01:20:00,41.4,35.4,28.65,SW,231,8.0,11.0,79,0.00,,,0.00,0,WeatherCatV1.15B25,2013-12-25 01:20:00,
2013-12-25 01:25:00,41.2,35.2,28.65,SW,235,7.0,16.0,79,0.00,,,0.00,0,WeatherCatV1.15B25,2013-12-25 01:25:00,
2013-12-25 01:30:00,41.2,35.2,28.64,SW,228,8.0,13.0,79,0.00,,,0.00,0,WeatherCatV1.15B25,2013-12-25 01:30:00,
2013-12-25 01:35:00,41.3,35.3,28.64,SW,228,11.0,21.0,79,0.00,,,0.00,0,WeatherCatV1.15B25,2013-12-25 01:35:00,
2013-12-25 01:40:00,41.4,35.1,28.64,SW,230,11.0,13.0,78,0.00,,,0.00,0,WeatherCatV1.15B25,2013-12-25 01:40:00,
2013-12-25 01:45:00,41.4,34.7,28.64,SW,230,9.0,18.0,77,0.00,,,0.00,0,WeatherCatV1.15B25,2013-12-25 01:45:00,
2013-12-25 01:50:00,41.4,34.7,28.65,SW,230,8.0,17.0,77,0.00,,,0.00,0,WeatherCatV1.15B25,2013-12-25 01:50:00,
2013-12-25 01:55:00,41.3,35.0,28.65,SW,230,7.0,10.0,78,0.00,,,0.00,0,WeatherCatV1.15B25,2013-12-25 01:55:00,
2013-12-25 02:00:00,41.2,34.9,28.65,SW,235,7.0,11.0,78,0.00,,,0.00,0,WeatherCatV1.15B25,2013-12-25 02:00:00,
2013-12-25 02:05:00,41.1,35.1,28.65,WSW,241,7.0,9.0,79,0.00,,,0.00,0,WeatherCatV1.15B25,2013-12-25 02:05:00,
2013-12-25 02:10:00,41.0,35.0,28.65,SW,236,6.0,13.0,79,0.00,,,0.00,0,WeatherCatV1.15B25,2013-12-25 02:10:00,
2013-12-25 02:15:00,41.0,35.0,28.65,WSW,242,7.0,12.0,79,0.00,,,0.00,0,WeatherCatV1.15B25,2013-12-25 02:15:00,
2013-12-25 02:20:00,41.1,35.1,28.66,WSW,237,7.0,10.0,79,0.00,,,0.00,0,WeatherCatV1.15B25,2013-12-25 02:20:00,
2013-12-25 02:25:00,41.1,35.1,28.66,SW,234,7.0,15.0,79,0.00,,,0.00,0,WeatherCatV1.15B25,2013-12-25 02:25:00,
2013-12-25 02:30:00,41.0,34.7,28.66,SW,235,8.0,11.0,78,0.00,,,0.00,0,WeatherCatV1.15B25,2013-12-25 02:30:00,
2013-12-25 02:35:00,41.0,34.0,28.67,SW,230,8.0,12.0,76,0.00,,,0.00,0,WeatherCatV1.15B25,2013-12-25 02:35:00,
2013-12-25 02:40:00,41.0,34.0,28.67,SW,230,8.0,16.0,76,0.00,,,0.00,0,WeatherCatV1.15B25,2013-12-25 02:40:00,
2013-12-25 02:45:00,40.9,33.9,28.67,SW,228,7.0,12.0,76,0.00,,,0.00,0,WeatherCatV1.15B25,2013-12-25 02:45:00,
2013-12-25 02:50:00,40.9,33.6,28.67,SW,233,7.0,7.0,75,0.00,,,0.00,0,WeatherCatV1.15B25,2013-12-25 02:50:00,
2013-12-25 02:55:00,40.7,33.7,28.67,SW,234,6.0,8.0,76,0.00,,,0.00,0,WeatherCatV1.15B25,2013-12-25 02:55:00,
2013-12-25 03:00:00,40.6,34.0,28.67,SW,234,5.0,11.0,77,0.00,,,0.00,0,WeatherCatV1.15B25,2013-12-25 03:00:00,
2013-12-25 03:05:00,40.4,33.8,28.67,SW,232,5.0,10.0,77,0.00,,,0.00,0,WeatherCatV1.15B25,2013-12-25 03:05:00,
2013-12-25 03:10:00,40.4,33.8,28.67,SW,225,7.0,13.0,77,0.00,,,0.00,0,WeatherCatV1.15B25,2013-12-25 03:10:00,
2013-12-25 03:15:00,40.4,33.8,28.67,SW,231,6.0,13.0,77,0.00,,,0.00,0,WeatherCatV1.15B25,2013-12-25 03:15:00,
2013-12-25 03:20:00,40.4,33.8,28.68,SW,233,5.0,11.0,77,0.00,,,0.00,0,WeatherCatV1.15B25,2013-12-25 03:20:00,
2013-12-25 03:25:00,40.5,34.2,28.68,SW,234,6.0,10.0,78,0.00,,,0.00,0,WeatherCatV1.15B25,2013-12-25 03:25:00,
2013-12-25 03:30:00,40.7,34.1,28.68,SW,224,7.0,8.0,77,0.00,,,0.00,0,WeatherCatV1.15B25,2013-12-25 03:30:00,
2013-12-25 03:35:00,41.0,34.4,28.68,SW,230,7.0,13.0,77,0.00,,,0.00,0,WeatherCatV1.15B25,2013-12-25 03:35:00,
2013-12-25 03:40:00,41.3,34.6,28.68,SW,234,8.0,12.0,77,0.00,,,0.00,0,WeatherCatV1.15B25,2013-12-25 03:40:00,
2013-12-25 03:45:00,41.4,35.1,28.68,SW,233,8.0,16.0,78,0.00,,,0.00,0,WeatherCatV1.15B25,2013-12-25 03:45:00,
2013-12-25 03:50:00,41.3,35.0,28.68,SW,230,8.0,19.0,78,0.00,,,0.00,0,WeatherCatV1.15B25,2013-12-25 03:50:00,
2013-12-25 03:55:00,41.6,35.3,28.68,SW,236,9.0,15.0,78,0.00,,,0.00,0,WeatherCatV1.15B25,2013-12-25 03:55:00,
2013-12-25 04:00:00,41.6,35.3,28.69,SW,235,8.0,13.0,78,0.00,,,0.00,0,WeatherCatV1.15B25,2013-12-25 04:00:00,
2013-12-25 04:05:00,41.4,35.1,28.69,WSW,238,7.0,10.0,78,0.00,,,0.00,0,WeatherCatV1.15B25,2013-12-25 04:05:00,
2013-12-25 04:10:00,41.3,35.3,28.69,SW,236,6.0,9.0,79,0.00,,,0.00,0,WeatherCatV1.15B25,2013-12-25 04:10:00,
2013-12-25 04:15:00,41.1,35.4,28.69,WSW,240,7.0,14.0,80,0.00,,,0.00,0,WeatherCatV1.15B25,2013-12-25 04:15:00,
2013-12-25 04:20:00,41.0,35.3,28.69,WSW,239,7.0,14.0,80,0.00,,,0.00,0,WeatherCatV1.15B25,2013-12-25 04:20:00,
2013-12-25 04:25:00,41.0,35.3,28.70,WSW,242,6.0,15.0,80,0.00,,,0.00,0,WeatherCatV1.15B25,2013-12-25 04:25:00,
2013-12-25 04:30:00,41.0,35.3,28.70,WSW,242,6.0,10.0,80,0.00,,,0.00,0,WeatherCatV1.15B25,2013-12-25 04:30:00,
2013-12-25 04:35:00,41.0,35.3,28.70,SW,235,6.0,12.0,80,0.00,,,0.00,0,WeatherCatV1.15B25,2013-12-25 04:35:00,
2013-12-25 04:40:00,41.0,35.6,28.71,WSW,238,6.0,12.0,81,0.00,,,0.00,0,WeatherCatV1.15B25,2013-12-25 04:40:00,
2013-12-25 04:45:00,41.0,35.6,28.71,WSW,243,6.0,14.0,81,0.00,,,0.00,0,WeatherCatV1.15B25,2013-12-25 04:45:00,
2013-12-25 04:50:00,40.9,35.5,28.71,WSW,247,6.0,10.0,81,0.00,,,0.00,0,WeatherCatV1.15B25,2013-12-25 04:50:00,
2013-12-25 04:55:00,40.9,35.5,28.72,WSW,244,5.0,12.0,81,0.00,,,0.00,0,WeatherCatV1.15B25,2013-12-25 04:55:00,
2013-12-25 05:00:00,40.8,35.4,28.72,WSW,246,5.0,6.0,81,0.00,,,0.00,0,WeatherCatV1.15B25,2013-12-25 05:00:00,
2013-12-25 05:05:00,40.6,35.5,28.72,WSW,245,5.0,8.0,82,0.00,,,0.00,0,WeatherCatV1.15B25,2013-12-25 05:05:00,
2013-12-25 05:10:00,40.6,35.5,28.72,WSW,245,5.0,8.0,82,0.00,,,0.00,0,WeatherCatV1.15B25,2013-12-25 05:10:00,
2013-12-25 05:15:00,40.5,35.4,28.72,WSW,244,5.0,12.0,82,0.00,,,0.00,0,WeatherCatV1.15B25,2013-12-25 05:15:00,
2013-12-25 05:20:00,40.5,35.4,28.72,WSW,249,5.0,7.0,82,0.00,,,0.00,0,WeatherCatV1.15B25,2013-12-25 05:20:00,
2013-12-25 05:25:00,40.5,35.4,28.72,WSW,241,5.0,9.0,82,0.00,,,0.00,0,WeatherCatV1.15B25,2013-12-25 05:25:00,
2013-12-25 05:30:00,40.4,35.3,28.73,SW,234,6.0,7.0,82,0.00,,,0.00,0,WeatherCatV1.15B25,2013-12-25 05:30:00,
2013-12-25 05:35:00,40.3,35.2,28.73,SW,235,5.0,7.0,82,0.00,,,0.00,0,WeatherCatV1.15B25,2013-12-25 05:35:00,
2013-12-25 05:40:00,40.2,35.5,28.73,SW,236,5.0,9.0,83,0.00,,,0.00,0,WeatherCatV1.15B25,2013-12-25 05:40:00,
2013-12-25 05:45:00,40.2,35.5,28.74,SW,235,6.0,12.0,83,0.00,,,0.00,0,WeatherCatV1.15B25,2013-12-25 05:45:00,
2013-12-25 05:50:00,40.4,35.7,28.74,SW,235,7.0,10.0,83,0.00,,,0.00,0,WeatherCatV1.15B25,2013-12-25 05:50:00,
2013-12-25 05:55:00,40.4,35.3,28.75,SW,231,6.0,10.0,82,0.00,,,0.00,0,WeatherCatV1.15B25,2013-12-25 05:55:00,
2013-12-25 06:00:00,40.3,35.2,28.75,SW,229,4.0,7.0,82,0.00,,,0.00,0,WeatherCatV1.15B25,2013-12-25 06:00:00,
2013-12-25 06:05:00,40.1,35.1,28.75,SW,225,4.0,9.0,82,0.00,,,0.00,0,WeatherCatV1.15B25,2013-12-25 06:05:00,
2013-12-25 06:10:00,40.1,35.1,28.76,SW,222,6.0,10.0,82,0.00,,,0.00,0,WeatherCatV1.15B25,2013-12-25 06:10:00,
2013-12-25 06:15:00,40.0,35.0,28.75,SW,223,6.0,7.0,82,0.00,,,0.00,0,WeatherCatV1.15B25,2013-12-25 06:15:00,
2013-12-25 06:20:00,39.9,34.9,28.76,SW,226,5.0,7.0,82,0.00,,,0.00,0,WeatherCatV1.15B25,2013-12-25 06:20:00,
2013-12-25 06:25:00,40.0,35.0,28.76,SW,223,5.0,6.0,82,0.00,,,0.00,0,WeatherCatV1.15B25,2013-12-25 06:25:00,
2013-12-25 06:30:00,40.0,35.0,28.76,SW,217,6.0,10.0,82,0.00,,,0.00,0,WeatherCatV1.15B25,2013-12-25 06:30:00,
2013-12-25 06:35:00,39.9,34.6,28.76,SW,221,6.0,7.0,81,0.00,,,0.00,0,WeatherCatV1.15B25,2013-12-25 06:35:00,
2013-12-25 06:40:00,39.8,34.5,28.76,SW,228,6.0,12.0,81,0.00,,,0.00,0,WeatherCatV1.15B25,2013-12-25 06:40:00,
2013-12-25 06:45:00,39.8,34.5,28.76,SW,226,7.0,13.0,81,0.00,,,0.00,0,WeatherCatV1.15B25,2013-12-25 06:45:00,
2013-12-25 06:50:00,39.8,34.5,28.76,SW,224,8.0,11.0,81,0.00,,,0.00,0,WeatherCatV1.15B25,2013-12-25 06:50:00,
2013-12-25 06:55:00,39.8,34.1,28.77,SW,228,8.0,8.0,80,0.00,,,0.00,0,WeatherCatV1.15B25,2013-12-25 06:55:00,
2013-12-25 07:00:00,39.6,33.9,28.77,SW,225,7.0,10.0,80,0.00,,,0.00,0,WeatherCatV1.15B25,2013-12-25 07:00:00,
2013-12-25 07:05:00,39.4,33.8,28.77,SW,225,6.0,8.0,80,0.00,,,0.00,0,WeatherCatV1.15B25,2013-12-25 07:05:00,
2013-12-25 07:10:00,39.1,33.5,28.77,SW,220,6.0,7.0,80,0.00,,,0.00,0,WeatherCatV1.15B25,2013-12-25 07:10:00,
2013-12-25 07:15:00,38.9,33.9,28.77,SW,220,6.0,9.0,82,0.00,,,0.00,0,WeatherCatV1.15B25,2013-12-25 07:15:00,
2013-12-25 07:20:00,38.8,33.8,28.78,SW,223,7.0,8.0,82,0.00,,,0.00,0,WeatherCatV1.15B25,2013-12-25 07:20:00,
2013-12-25 07:25:00,38.7,34.0,28.78,SW,221,6.0,9.0,83,0.00,,,0.00,0,WeatherCatV1.15B25,2013-12-25 07:25:00,
2013-12-25 07:30:00,38.6,33.9,28.78,SW,219,6.0,7.0,83,0.00,,,0.00,0,WeatherCatV1.15B25,2013-12-25 07:30:00,
2013-12-25 07:35:00,38.4,33.7,28.79,SW,218,5.0,6.0,83,0.00,,,0.00,0,WeatherCatV1.15B25,2013-12-25 07:35:00,
2013-12-25 07:40:00,38.4,33.7,28.79,SW,217,5.0,9.0,83,0.00,,,0.00,0,WeatherCatV1.15B25,2013-12-25 07:40:00,
2013-12-25 07:45:00,38.4,33.7,28.79,SW,216,6.0,9.0,83,0.00,,,0.00,0,WeatherCatV1.15B25,2013-12-25 07:45:00,
2013-12-25 07:50:00,38.4,33.7,28.79,SW,218,6.0,8.0,83,0.00,,,0.00,0,WeatherCatV1.15B25,2013-12-25 07:50:00,
2013-12-25 07:55:00,38.4,33.7,28.79,SW,218,6.0,9.0,83,0.00,,,0.00,0,WeatherCatV1.15B25,2013-12-25 07:55:00,
2013-12-25 08:00:00,38.4,33.7,28.79,SW,218,6.0,8.0,83,0.00,,,0.00,0,WeatherCatV1.15B25,2013-12-25 08:00:00,
2013-12-25 08:05:00,38.6,33.9,28.79,SW,219,7.0,10.0,83,0.00,,,0.00,0,WeatherCatV1.15B25,2013-12-25 08:05:00,
2013-12-25 08:10:00,38.8,33.8,28.80,SW,214,6.0,8.0,82,0.00,,,0.00,0,WeatherCatV1.15B25,2013-12-25 08:10:00,
2013-12-25 08:15:00,39.1,33.8,28.80,SW,214,6.0,11.0,81,0.00,,,0.00,0,WeatherCatV1.15B25,2013-12-25 08:15:00,
2013-12-25 08:20:00,39.3,34.0,28.81,SW,214,7.0,7.0,81,0.00,,,0.00,0,WeatherCatV1.15B25,2013-12-25 08:20:00,
2013-12-25 08:25:00,39.5,33.8,28.82,SW,215,6.0,7.0,80,0.00,,,0.00,0,WeatherCatV1.15B25,2013-12-25 08:25:00,
2013-12-25 08:30:00,39.3,34.0,28.82,SW,218,6.0,7.0,81,0.00,,,0.00,0,WeatherCatV1.15B25,2013-12-25 08:30:00,
2013-12-25 08:35:00,39.2,33.9,28.82,SSW,213,5.0,7.0,81,0.00,,,0.00,0,WeatherCatV1.15B25,2013-12-25 08:35:00,
2013-12-25 08:40:00,39.2,33.9,28.83,SSW,213,5.0,6.0,81,0.00,,,0.00,5,WeatherCatV1.15B25,2013-12-25 08:40:00,
2013-12-25 08:45:00,39.1,33.8,28.83,SSW,212,4.0,5.0,81,0.00,,,0.00,7,WeatherCatV1.15B25,2013-12-25 08:45:00,
2013-12-25 08:50:00,39.0,33.7,28.83,SW,218,4.0,5.0,81,0.00,,,0.00,11,WeatherCatV1.15B25,2013-12-25 08:50:00,
2013-12-25 08:55:00,38.8,33.5,28.83,SW,219,4.0,7.0,81,0.00,,,0.00,14,WeatherCatV1.15B25,2013-12-25 08:55:00,
2013-12-25 09:00:00,38.7,33.4,28.83,SW,220,5.0,6.0,81,0.00,,,0.00,16,WeatherCatV1.15B25,2013-12-25 09:00:00,
2013-12-25 09:05:00,38.7,33.4,28.83,SW,220,4.0,4.0,81,0.00,,,0.00,18,WeatherCatV1.15B25,2013-12-25 09:05:00,
2013-12-25 09:10:00,38.8,33.5,28.83,SW,220,4.0,5.0,81,0.00,,,0.00,19,WeatherCatV1.15B25,2013-12-25 09:10:00,
2013-12-25 09:15:00,38.9,33.9,28.84,SW,219,4.0,8.0,82,0.00,,,0.00,21,WeatherCatV1.15B25,2013-12-25 09:15:00,
2013-12-25 09:20:00,39.0,34.0,28.84,SW,219,5.0,7.0,82,0.00,,,0.00,26,WeatherCatV1.15B25,2013-12-25 09:20:00,
2013-12-25 09:25:00,39.2,34.2,28.84,SW,218,5.0,8.0,82,0.00,,,0.00,28,WeatherCatV1.15B25,2013-12-25 09:25:00,
2013-12-25 09:30:00,39.5,34.5,28.83,SW,214,6.0,9.0,82,0.00,,,0.00,33,WeatherCatV1.15B25,2013-12-25 09:30:00,
2013-12-25 09:35:00,40.0,34.6,28.84,SW,214,7.0,8.0,81,0.00,,,0.00,42,WeatherCatV1.15B25,2013-12-25 09:35:00,
2013-12-25 09:40:00,40.6,34.9,28.83,SSW,212,7.0,13.0,80,0.00,,,0.00,44,WeatherCatV1.15B25,2013-12-25 09:40:00,
2013-12-25 09:45:00,41.1,35.1,28.83,SSW,212,7.0,13.0,79,0.00,,,0.00,44,WeatherCatV1.15B25,2013-12-25 09:45:00,
2013-12-25 09:50:00,41.5,35.5,28.83,SSW,212,8.0,10.0,79,0.00,,,0.00,44,WeatherCatV1.15B25,2013-12-25 09:50:00,
2013-12-25 09:55:00,41.7,35.7,28.84,SSW,211,8.0,12.0,79,0.00,,,0.00,39,WeatherCatV1.15B25,2013-12-25 09:55:00,
2013-12-25 10:00:00,41.7,35.7,28.84,SW,215,8.0,14.0,79,0.00,,,0.00,46,WeatherCatV1.15B25,2013-12-25 10:00:00,
2013-12-25 10:05:00,41.8,35.8,28.85,SW,215,8.0,10.0,79,0.00,,,0.00,56,WeatherCatV1.15B25,2013-12-25 10:05:00,
2013-12-25 10:10:00,41.9,35.9,28.85,SW,219,9.0,12.0,79,0.00,,,0.00,60,WeatherCatV1.15B25,2013-12-25 10:10:00,
2013-12-25 10:15:00,42.0,36.0,28.84,SW,222,8.0,11.0,79,0.00,,,0.00,72,WeatherCatV1.15B25,2013-12-25 10:15:00,
2013-12-25 10:20:00,42.4,36.0,28.84,SW,218,8.0,9.0,78,0.00,,,0.00,90,WeatherCatV1.15B25,2013-12-25 10:20:00,
2013-12-25 10:25:00,42.6,36.2,28.85,SW,215,8.0,10.0,78,0.00,,,0.00,91,WeatherCatV1.15B25,2013-12-25 10:25:00,
2013-12-25 10:30:00,42.8,36.4,28.85,SW,219,6.0,8.0,78,0.00,,,0.00,95,WeatherCatV1.15B25,2013-12-25 10:30:00,
2013-12-25 10:35:00,42.9,36.5,28.85,SW,220,6.0,10.0,78,0.00,,,0.00,95,WeatherCatV1.15B25,2013-12-25 10:35:00,
2013-12-25 10:40:00,43.0,36.3,28.85,SW,220,6.0,9.0,77,0.00,,,0.00,83,WeatherCatV1.15B25,2013-12-25 10:40:00,
2013-12-25 10:45:00,43.1,36.4,28.85,SW,219,6.0,9.0,77,0.00,,,0.00,91,WeatherCatV1.15B25,2013-12-25 10:45:00,
2013-12-25 10:50:00,43.2,36.5,28.85,SW,220,7.0,14.0,77,0.00,,,0.00,98,WeatherCatV1.15B25,2013-12-25 10:50:00,
2013-12-25 10:55:00,43.3,35.9,28.86,SW,217,8.0,15.0,75,0.00,,,0.00,102,WeatherCatV1.15B25,2013-12-25 10:55:00,
2013-12-25 11:00:00,43.5,36.1,28.87,SW,221,9.0,11.0,75,0.00,,,0.00,88,WeatherCatV1.15B25,2013-12-25 11:00:00,
2013-12-25 11:05:00,43.7,36.3,28.87,SW,220,8.0,11.0,75,0.00,,,0.00,121,WeatherCatV1.15B25,2013-12-25 11:05:00,
2013-12-25 11:10:00,43.7,36.3,28.87,SW,226,7.0,9.0,75,0.00,,,0.00,116,WeatherCatV1.15B25,2013-12-25 11:10:00,
2013-12-25 11:15:00,43.8,36.4,28.87,SW,229,7.0,11.0,75,0.00,,,0.00,114,WeatherCatV1.15B25,2013-12-25 11:15:00,
2013-12-25 11:20:00,43.9,36.5,28.87,SW,227,8.0,10.0,75,0.00,,,0.00,111,WeatherCatV1.15B25,2013-12-25 11:20:00,
2013-12-25 11:25:00,44.0,36.6,28.87,SW,226,8.0,12.0,75,0.00,,,0.00,107,WeatherCatV1.15B25,2013-12-25 11:25:00,
2013-12-25 11:30:00,44.0,36.3,28.87,SW,227,8.0,12.0,74,0.00,,,0.00,118,WeatherCatV1.15B25,2013-12-25 11:30:00,
2013-12-25 11:35:00,44.1,36.7,28.87,SW,225,8.0,12.0,75,0.00,,,0.00,144,WeatherCatV1.15B25,2013-12-25 11:35:00,
2013-12-25 11:40:00,44.2,36.4,28.87,SW,225,8.0,12.0,74,0.00,,,0.00,153,WeatherCatV1.15B25,2013-12-25 11:40:00,
2013-12-25 11:45:00,44.4,36.3,28.88,SW,224,8.0,10.0,73,0.00,,,0.00,165,WeatherCatV1.15B25,2013-12-25 11:45:00,
2013-12-25 11:50:00,44.6,36.5,28.88,SW,222,8.0,11.0,73,0.00,,,0.00,185,WeatherCatV1.15B25,2013-12-25 11:50:00,
2013-12-25 11:55:00,44.9,36.8,28.88,SW,221,8.0,10.0,73,0.00,,,0.00,192,WeatherCatV1.15B25,2013-12-25 11:55:00,
2013-12-25 12:00:00,45.1,36.6,28.88,SW,215,8.0,13.0,72,0.00,,,0.00,185,WeatherCatV1.15B25,2013-12-25 12:00:00,
2013-12-25 12:05:00,45.3,36.8,28.88,SW,218,8.0,14.0,72,0.00,,,0.00,181,WeatherCatV1.15B25,2013-12-25 12:05:00,
2013-12-25 12:10:00,45.4,36.6,28.88,SW,222,9.0,16.0,71,0.00,,,0.00,167,WeatherCatV1.15B25,2013-12-25 12:10:00,
2013-12-25 12:15:00,45.6,36.7,28.88,SW,234,7.0,9.0,71,0.00,,,0.00,167,WeatherCatV1.15B25,2013-12-25 12:15:00,
2013-12-25 12:20:00,45.7,36.8,28.88,SW,234,7.0,9.0,71,0.00,,,0.00,167,WeatherCatV1.15B25,2013-12-25 12:20:00,
2013-12-25 12:25:00,45.7,36.5,28.88,SW,230,8.0,13.0,70,0.00,,,0.00,165,WeatherCatV1.15B25,2013-12-25 12:25:00,
2013-12-25 12:30:00,45.7,36.8,28.89,SW,233,8.0,17.0,71,0.00,,,0.00,141,WeatherCatV1.15B25,2013-12-25 12:30:00,
2013-12-25 12:35:00,45.7,36.8,28.89,SW,235,8.0,13.0,71,0.00,,,0.00,79,WeatherCatV1.15B25,2013-12-25 12:35:00,
2013-12-25 12:40:00,45.5,36.7,28.89,WSW,240,8.0,12.0,71,0.00,,,0.00,88,WeatherCatV1.15B25,2013-12-25 12:40:00,
2013-12-25 12:45:00,45.4,36.6,28.89,WSW,240,7.0,7.0,71,0.00,,,0.00,97,WeatherCatV1.15B25,2013-12-25 12:45:00,
2013-12-25 12:50:00,45.5,36.3,28.89,SW,235,6.0,9.0,70,0.00,,,0.00,105,WeatherCatV1.15B25,2013-12-25 12:50:00,
2013-12-25 12:55:00,45.4,35.8,28.89,SW,232,6.0,7.0,69,0.00,,,0.00,72,WeatherCatV1.15B25,2013-12-25 12:55:00,
2013-12-25 13:00:00,45.3,35.7,28.90,SW,233,6.0,7.0,69,0.00,,,0.00,72,WeatherCatV1.15B25,2013-12-25 13:00:00,
2013-12-25 13:05:00,45.2,36.0,28.90,SW,230,6.0,6.0,70,0.00,,,0.00,79,WeatherCatV1.15B25,2013-12-25 13:05:00,
2013-12-25 13:10:00,45.2,35.6,28.90,WSW,238,6.0,11.0,69,0.00,,,0.00,90,WeatherCatV1.15B25,2013-12-25 13:10:00,
2013-12-25 13:15:00,45.1,35.9,28.90,SW,230,5.0,9.0,70,0.00,,,0.00,67,WeatherCatV1.15B25,2013-12-25 13:15:00,
2013-12-25 13:20:00,45.1,35.9,28.91,SW,231,5.0,7.0,70,0.00,,,0.00,60,WeatherCatV1.15B25,2013-12-25 13:20:00,
2013-12-25 13:25:00,44.8,36.0,28.91,SW,228,5.0,10.0,71,0.00,,,0.00,60,WeatherCatV1.15B25,2013-12-25 13:25:00,
2013-12-25 13:30:00,44.5,36.0,28.91,SW,230,5.0,10.0,72,0.00,,,0.00,67,WeatherCatV1.15B25,2013-12-25 13:30:00,
2013-12-25 13:35:00,44.4,35.9,28.91,SW,234,5.0,10.0,72,0.00,,,0.00,81,WeatherCatV1.15B25,2013-12-25 13:35:00,
2013-12-25 13:40:00,44.3,35.5,28.91,SW,231,6.0,12.0,71,0.00,,,0.00,84,WeatherCatV1.15B25,2013-12-25 13:40:00,
2013-12-25 13:45:00,44.3,35.5,28.91,SW,231,6.0,8.0,71,0.00,,,0.00,90,WeatherCatV1.15B25,2013-12-25 13:45:00,
2013-12-25 13:50:00,44.5,36.0,28.91,SW,225,6.0,9.0,72,0.00,,,0.00,97,WeatherCatV1.15B25,2013-12-25 13:50:00,
2013-12-25 13:55:00,44.7,36.6,28.91,SW,226,6.0,10.0,73,0.00,,,0.00,91,WeatherCatV1.15B25,2013-12-25 13:55:00,
2013-12-25 14:00:00,44.7,36.6,28.91,SW,226,6.0,6.0,73,0.00,,,0.00,90,WeatherCatV1.15B25,2013-12-25 14:00:00,
2013-12-25 14:05:00,44.7,36.6,28.91,SW,226,6.0,12.0,73,0.00,,,0.00,77,WeatherCatV1.15B25,2013-12-25 14:05:00,
2013-12-25 14:10:00,44.6,36.5,28.91,SW,228,7.0,10.0,73,0.00,,,0.00,54,WeatherCatV1.15B25,2013-12-25 14:10:00,
2013-12-25 14:15:00,44.5,36.4,28.92,SW,223,7.0,10.0,73,0.00,,,0.00,49,WeatherCatV1.15B25,2013-12-25 14:15:00,
2013-12-25 14:20:00,44.4,36.3,28.92,SW,219,7.0,9.0,73,0.00,,,0.00,47,WeatherCatV1.15B25,2013-12-25 14:20:00,
2013-12-25 14:25:00,44.3,36.5,28.92,SW,220,6.0,6.0,74,0.00,,,0.00,47,WeatherCatV1.15B25,2013-12-25 14:25:00,
2013-12-25 14:30:00,44.1,36.4,28.93,SSW,204,4.0,5.0,74,0.00,,,0.00,44,WeatherCatV1.15B25,2013-12-25 14:30:00,
2013-12-25 14:35:00,43.8,36.1,28.93,SSW,196,3.0,3.0,74,0.00,,,0.00,37,WeatherCatV1.15B25,2013-12-25 14:35:00,
2013-12-25 14:40:00,43.5,36.4,28.93,SSW,193,2.0,3.0,76,0.00,,,0.00,32,WeatherCatV1.15B25,2013-12-25 14:40:00,
2013-12-25 14:45:00,43.1,35.7,28.93,SSW,193,2.0,5.0,75,0.00,,,0.00,28,WeatherCatV1.15B25,2013-12-25 14:45:00,
2013-12-25 14:50:00,42.8,35.8,28.94,SSW,193,3.0,5.0,76,0.00,,,0.00,26,WeatherCatV1.15B25,2013-12-25 14:50:00,
2013-12-25 14:55:00,42.3,35.9,28.94,South,181,5.0,9.0,78,0.00,,,0.00,26,WeatherCatV1.15B25,2013-12-25 14:55:00,
2013-12-25 15:00:00,42.2,36.5,28.94,South,182,5.0,10.0,80,0.00,,,0.00,25,WeatherCatV1.15B25,2013-12-25 15:00:00,
2013-12-25 15:05:00,42.0,36.9,28.94,South,179,6.0,7.0,82,0.00,,,0.00,25,WeatherCatV1.15B25,2013-12-25 15:05:00,
2013-12-25 15:10:00,41.6,36.8,28.94,South,178,5.0,7.0,83,0.00,,,0.00,19,WeatherCatV1.15B25,2013-12-25 15:10:00,
2013-12-25 15:15:00,41.4,36.6,28.94,South,182,6.0,7.0,83,0.00,,,0.00,14,WeatherCatV1.15B25,2013-12-25 15:15:00,
2013-12-25 15:20:00,41.1,36.6,28.95,SSW,199,5.0,8.0,84,0.00,,,0.00,12,WeatherCatV1.15B25,2013-12-25 15:20:00,
2013-12-25 15:25:00,40.8,36.3,28.95,South,191,4.0,6.0,84,0.00,,,0.00,11,WeatherCatV1.15B25,2013-12-25 15:25:00,
2013-12-25 15:30:00,40.4,36.0,28.95,South,187,4.0,8.0,84,0.00,,,0.00,7,WeatherCatV1.15B25,2013-12-25 15:30:00,
2013-12-25 15:35:00,40.1,35.7,28.95,South,175,5.0,8.0,84,0.00,,,0.00,5,WeatherCatV1.15B25,2013-12-25 15:35:00,
2013-12-25 15:40:00,40.3,35.9,28.95,SSE,167,6.0,12.0,84,0.00,,,0.00,0,WeatherCatV1.15B25,2013-12-25 15:40:00,
2013-12-25 15:45:00,40.2,35.8,28.95,South,175,7.0,8.0,84,0.00,,,0.00,0,WeatherCatV1.15B25,2013-12-25 15:45:00,
2013-12-25 15:50:00,40.2,35.5,28.96,South,186,6.0,10.0,83,0.00,,,0.00,0,WeatherCatV1.15B25,2013-12-25 15:50:00,
2013-12-25 15:55:00,40.2,35.5,28.96,SSW,195,5.0,8.0,83,0.00,,,0.00,0,WeatherCatV1.15B25,2013-12-25 15:55:00,
2013-12-25 16:00:00,40.2,35.5,28.96,SSW,196,5.0,7.0,83,0.00,,,0.00,0,WeatherCatV1.15B25,2013-12-25 16:00:00,
2013-12-25 16:05:00,40.4,35.7,28.97,SSW,205,6.0,9.0,83,0.00,,,0.00,0,WeatherCatV1.15B25,2013-12-25 16:05:00,
2013-12-25 16:10:00,40.6,35.8,28.97,SSW,209,7.0,11.0,83,0.00,,,0.00,0,WeatherCatV1.15B25,2013-12-25 16:10:00,
2013-12-25 16:15:00,40.6,35.5,28.97,SW,214,8.0,12.0,82,0.00,,,0.00,0,WeatherCatV1.15B25,2013-12-25 16:15:00,
2013-12-25 16:20:00,40.5,35.4,28.97,SW,215,8.0,10.0,82,0.00,,,0.00,0,WeatherCatV1.15B25,2013-12-25 16:20:00,
2013-12-25 16:25:00,40.4,35.3,28.98,SW,216,7.0,9.0,82,0.00,,,0.00,0,WeatherCatV1.15B25,2013-12-25 16:25:00,
2013-12-25 16:30:00,40.3,35.6,28.98,SW,215,7.0,10.0,83,0.00,,,0.00,0,WeatherCatV1.15B25,2013-12-25 16:30:00,
2013-12-25 16:35:00,40.2,35.5,28.98,SSW,213,7.0,9.0,83,0.00,,,0.00,0,WeatherCatV1.15B25,2013-12-25 16:35:00,
2013-12-25 16:40:00,40.2,35.5,28.98,SSW,211,6.0,7.0,83,0.00,,,0.00,0,WeatherCatV1.15B25,2013-12-25 16:40:00,
2013-12-25 16:45:00,39.9,35.2,28.99,SSW,210,6.0,8.0,83,0.00,,,0.00,0,WeatherCatV1.15B25,2013-12-25 16:45:00,
2013-12-25 16:50:00,39.7,35.0,28.99,SSW,207,5.0,5.0,83,0.00,,,0.00,0,WeatherCatV1.15B25,2013-12-25 16:50:00,
2013-12-25 16:55:00,39.4,34.7,28.99,SSW,195,4.0,5.0,83,0.00,,,0.00,0,WeatherCatV1.15B25,2013-12-25 16:55:00,
2013-12-25 17:00:00,39.0,34.6,28.99,SSW,203,4.0,4.0,84,0.00,,,0.00,0,WeatherCatV1.15B25,2013-12-25 17:00:00,
2013-12-25 17:05:00,38.7,34.6,28.99,SSW,206,4.0,5.0,85,0.00,,,0.00,0,WeatherCatV1.15B25,2013-12-25 17:05:00,
2013-12-25 17:10:00,38.4,34.3,28.99,SSW,198,3.0,6.0,85,0.00,,,0.00,0,WeatherCatV1.15B25,2013-12-25 17:10:00,
2013-12-25 17:15:00,38.3,34.5,28.99,SSW,199,4.0,6.0,86,0.00,,,0.00,0,WeatherCatV1.15B25,2013-12-25 17:15:00,
2013-12-25 17:20:00,38.3,34.8,28.99,SSW,206,4.0,6.0,87,0.00,,,0.00,0,WeatherCatV1.15B25,2013-12-25 17:20:00,
2013-12-25 17:25:00,38.3,34.8,29.00,SSW,209,5.0,6.0,87,0.00,,,0.00,0,WeatherCatV1.15B25,2013-12-25 17:25:00,
2013-12-25 17:30:00,38.2,34.7,29.00,SSW,204,5.0,5.0,87,0.00,,,0.00,0,WeatherCatV1.15B25,2013-12-25 17:30:00,
2013-12-25 17:35:00,38.2,35.0,29.00,SSW,207,4.0,6.0,88,0.00,,,0.00,0,WeatherCatV1.15B25,2013-12-25 17:35:00,
2013-12-25 17:40:00,38.2,35.0,29.00,SSW,211,5.0,7.0,88,0.00,,,0.00,0,WeatherCatV1.15B25,2013-12-25 17:40:00,
2013-12-25 17:45:00,38.2,35.0,29.00,SW,216,6.0,8.0,88,0.00,,,0.00,0,WeatherCatV1.15B25,2013-12-25 17:45:00,
2013-12-25 17:50:00,38.3,35.1,29.00,SW,220,6.0,7.0,88,0.00,,,0.00,0,WeatherCatV1.15B25,2013-12-25 17:50:00,
2013-12-25 17:55:00,38.3,35.1,29.00,SW,219,7.0,8.0,88,0.00,,,0.00,0,WeatherCatV1.15B25,2013-12-25 17:55:00,
2013-12-25 18:00:00,38.4,35.2,29.01,SW,219,7.0,8.0,88,0.00,,,0.00,0,WeatherCatV1.15B25,2013-12-25 18:00:00,
2013-12-25 18:05:00,38.5,35.3,29.01,SW,218,6.0,8.0,88,0.00,,,0.00,0,WeatherCatV1.15B25,2013-12-25 18:05:00,
2013-12-25 18:10:00,38.4,34.9,29.01,SW,216,6.0,6.0,87,0.00,,,0.00,0,WeatherCatV1.15B25,2013-12-25 18:10:00,
2013-12-25 18:15:00,38.5,35.3,29.01,SSW,205,6.0,9.0,88,0.00,,,0.00,0,WeatherCatV1.15B25,2013-12-25 18:15:00,
2013-12-25 18:20:00,38.4,34.9,29.02,SSW,199,5.0,5.0,87,0.00,,,0.00,0,WeatherCatV1.15B25,2013-12-25 18:20:00,
2013-12-25 18:25:00,38.2,34.7,29.02,South,189,3.0,3.0,87,0.00,,,0.00,0,WeatherCatV1.15B25,2013-12-25 18:25:00,
2013-12-25 18:30:00,37.9,34.4,29.02,South,178,3.0,9.0,87,0.00,,,0.00,0,WeatherCatV1.15B25,2013-12-25 18:30:00,
2013-12-25 18:35:00,37.7,34.8,29.03,South,185,4.0,8.0,89,0.00,,,0.00,0,WeatherCatV1.15B25,2013-12-25 18:35:00,
2013-12-25 18:40:00,37.7,34.8,29.03,South,191,4.0,5.0,89,0.00,,,0.00,0,WeatherCatV1.15B25,2013-12-25 18:40:00,
2013-12-25 18:45:00,37.7,34.8,29.03,South,188,3.0,6.0,89,0.00,,,0.00,0,WeatherCatV1.15B25,2013-12-25 18:45:00,
2013-12-25 18:50:00,37.7,34.8,29.03,SSW,198,3.0,6.0,89,0.00,,,0.00,0,WeatherCatV1.15B25,2013-12-25 18:50:00,
2013-12-25 18:55:00,37.9,35.2,29.03,SSW,199,4.0,6.0,90,0.00,,,0.00,0,WeatherCatV1.15B25,2013-12-25 18:55:00,
2013-12-25 19:00:00,38.1,35.2,29.03,South,188,4.0,11.0,89,0.00,,,0.00,0,WeatherCatV1.15B25,2013-12-25 19:00:00,
2013-12-25 19:05:00,38.2,35.2,29.04,South,178,5.0,10.0,89,0.00,,,0.00,0,WeatherCatV1.15B25,2013-12-25 19:05:00,
2013-12-25 19:10:00,38.0,34.8,29.04,SSE,164,6.0,8.0,88,0.00,,,0.00,0,WeatherCatV1.15B25,2013-12-25 19:10:00,
2013-12-25 19:15:00,37.5,34.6,29.04,SSE,157,6.0,7.0,89,0.00,,,0.00,0,WeatherCatV1.15B25,2013-12-25 19:15:00,
2013-12-25 19:20:00,37.1,34.2,29.05,SSE,159,6.0,10.0,89,0.00,,,0.00,0,WeatherCatV1.15B25,2013-12-25 19:20:00,
2013-12-25 19:25:00,36.9,34.2,29.05,SSE,160,6.0,7.0,90,0.00,,,0.00,0,WeatherCatV1.15B25,2013-12-25 19:25:00,
2013-12-25 19:30:00,36.8,34.1,29.05,SSE,156,7.0,8.0,90,0.00,,,0.00,0,WeatherCatV1.15B25,2013-12-25 19:30:00,
2013-12-25 19:35:00,36.7,34.3,29.05,SSE,155,6.0,10.0,91,0.00,,,0.00,0,WeatherCatV1.15B25,2013-12-25 19:35:00,
2013-12-25 19:40:00,36.6,33.9,29.06,SSE,154,6.0,9.0,90,0.00,,,0.00,0,WeatherCatV1.15B25,2013-12-25 19:40:00,
2013-12-25 19:45:00,36.6,34.2,29.06,SSE,153,6.0,10.0,91,0.00,,,0.00,0,WeatherCatV1.15B25,2013-12-25 19:45:00,
2013-12-25 19:50:00,36.4,34.0,29.06,SSE,158,7.0,9.0,91,0.00,,,0.00,0,WeatherCatV1.15B25,2013-12-25 19:50:00,
2013-12-25 19:55:00,36.4,34.0,29.06,SSE,156,7.0,11.0,91,0.00,,,0.00,0,WeatherCatV1.15B25,2013-12-25 19:55:00,
2013-12-25 20:00:00,36.4,34.0,29.06,SSE,160,7.0,10.0,91,0.00,,,0.00,0,WeatherCatV1.15B25,2013-12-25 20:00:00,
2013-12-25 20:05:00,36.4,34.0,29.06,SSE,163,6.0,7.0,91,0.00,,,0.00,0,WeatherCatV1.15B25,2013-12-25 20:05:00,
2013-12-25 20:10:00,36.3,33.9,29.06,South,174,5.0,7.0,91,0.00,,,0.00,0,WeatherCatV1.15B25,2013-12-25 20:10:00,
2013-12-25 20:15:00,36.3,33.9,29.07,South,177,4.0,8.0,91,0.00,,,0.00,0,WeatherCatV1.15B25,2013-12-25 20:15:00,
2013-12-25 20:20:00,36.2,33.8,29.07,SSE,167,4.0,8.0,91,0.00,,,0.00,0,WeatherCatV1.15B25,2013-12-25 20:20:00,
2013-12-25 20:25:00,36.2,34.1,29.07,SSE,163,7.0,10.0,92,0.00,,,0.00,0,WeatherCatV1.15B25,2013-12-25 20:25:00,
2013-12-25 20:30:00,36.1,34.0,29.07,SSE,162,7.0,10.0,92,0.00,,,0.00,0,WeatherCatV1.15B25,2013-12-25 20:30:00,
2013-12-25 20:35:00,36.0,33.9,29.07,SSE,159,6.0,10.0,92,0.00,,,0.00,0,WeatherCatV1.15B25,2013-12-25 20:35:00,
2013-12-25 20:40:00,35.9,33.8,29.07,SSE,168,6.0,9.0,92,0.00,,,0.00,0,WeatherCatV1.15B25,2013-12-25 20:40:00,
2013-12-25 20:45:00,35.9,33.8,29.08,South,170,5.0,10.0,92,0.00,,,0.00,0,WeatherCatV1.15B25,2013-12-25 20:45:00,
2013-12-25 20:50:00,35.9,33.8,29.08,SSE,163,5.0,10.0,92,0.00,,,0.00,0,WeatherCatV1.15B25,2013-12-25 20:50:00,
2013-12-25 20:55:00,35.7,33.6,29.08,SSE,163,7.0,12.0,92,0.00,,,0.00,0,WeatherCatV1.15B25,2013-12-25 20:55:00,
2013-12-25 21:00:00,35.7,33.6,29.08,SSE,166,7.0,8.0,92,0.00,,,0.00,0,WeatherCatV1.15B25,2013-12-25 21:00:00,
2013-12-25 21:05:00,35.7,33.6,29.09,SSE,166,7.0,9.0,92,0.00,,,0.00,0,WeatherCatV1.15B25,2013-12-25 21:05:00,
2013-12-25 21:10:00,35.7,33.6,29.09,South,169,6.0,9.0,92,0.00,,,0.00,0,WeatherCatV1.15B25,2013-12-25 21:10:00,
2013-12-25 21:15:00,35.6,33.5,29.09,SSE,165,6.0,9.0,92,0.00,,,0.00,0,WeatherCatV1.15B25,2013-12-25 21:15:00,
2013-12-25 21:20:00,35.6,33.8,29.09,SSE,164,7.0,12.0,93,0.00,,,0.00,0,WeatherCatV1.15B25,2013-12-25 21:20:00,
2013-12-25 21:25:00,35.6,33.8,29.10,SSE,163,7.0,11.0,93,0.00,,,0.00,0,WeatherCatV1.15B25,2013-12-25 21:25:00,
2013-12-25 21:30:00,35.6,33.8,29.10,SSE,165,7.0,10.0,93,0.00,,,0.00,0,WeatherCatV1.15B25,2013-12-25 21:30:00,
2013-12-25 21:35:00,35.5,33.4,29.10,South,180,5.0,8.0,92,0.00,,,0.00,0,WeatherCatV1.15B25,2013-12-25 21:35:00,
2013-12-25 21:40:00,35.5,33.4,29.10,South,180,5.0,8.0,92,0.00,,,0.00,0,WeatherCatV1.15B25,2013-12-25 21:40:00,
2013-12-25 21:45:00,35.8,34.0,29.10,South,191,4.0,5.0,93,0.00,,,0.00,0,WeatherCatV1.15B25,2013-12-25 21:45:00,
2013-12-25 21:50:00,36.1,34.3,29.10,South,188,4.0,6.0,93,0.00,,,0.00,0,WeatherCatV1.15B25,2013-12-25 21:50:00,
2013-12-25 21:55:00,36.3,34.5,29.10,South,183,5.0,9.0,93,0.00,,,0.00,0,WeatherCatV1.15B25,2013-12-25 21:55:00,
2013-12-25 22:00:00,36.1,34.0,29.10,South,171,6.0,8.0,92,0.00,,,0.00,0,WeatherCatV1.15B25,2013-12-25 22:00:00,
2013-12-25 22:05:00,35.9,33.8,29.10,South,172,5.0,8.0,92,0.00,,,0.00,0,WeatherCatV1.15B25,2013-12-25 22:05:00,
2013-12-25 22:10:00,35.7,33.6,29.10,South,181,5.0,7.0,92,0.00,,,0.00,0,WeatherCatV1.15B25,2013-12-25 22:10:00,
2013-12-25 22:15:00,35.6,33.5,29.10,SSW,199,4.0,6.0,92,0.00,,,0.00,0,WeatherCatV1.15B25,2013-12-25 22:15:00,
2013-12-25 22:20:00,35.6,33.5,29.10,SSW,199,4.0,6.0,92,0.00,,,0.00,0,WeatherCatV1.15B25,2013-12-25 22:20:00,
2013-12-25 22:25:00,35.6,33.5,29.11,SSW,208,5.0,8.0,92,0.00,,,0.00,0,WeatherCatV1.15B25,2013-12-25 22:25:00,
2013-12-25 22:30:00,35.6,33.8,29.11,SSW,204,5.0,6.0,93,0.00,,,0.00,0,WeatherCatV1.15B25,2013-12-25 22:30:00,
2013-12-25 22:35:00,35.9,34.1,29.11,SSW,193,5.0,12.0,93,0.00,,,0.00,0,WeatherCatV1.15B25,2013-12-25 22:35:00,
2013-12-25 22:40:00,36.1,34.3,29.11,South,186,7.0,12.0,93,0.00,,,0.00,0,WeatherCatV1.15B25,2013-12-25 22:40:00,
2013-12-25 22:45:00,36.1,34.3,29.12,South,184,6.0,7.0,93,0.00,,,0.00,0,WeatherCatV1.15B25,2013-12-25 22:45:00,
2013-12-25 22:50:00,36.1,34.0,29.11,South,179,5.0,9.0,92,0.00,,,0.00,0,WeatherCatV1.15B25,2013-12-25 22:50:00,
2013-12-25 22:55:00,35.9,33.8,29.12,South,173,6.0,6.0,92,0.00,,,0.00,0,WeatherCatV1.15B25,2013-12-25 22:55:00,
2013-12-25 23:00:00,35.8,33.7,29.12,South,178,6.0,7.0,92,0.00,,,0.00,0,WeatherCatV1.15B25,2013-12-25 23:00:00,
2013-12-25 23:05:00,35.6,33.5,29.12,South,180,5.0,8.0,92,0.00,,,0.00,0,WeatherCatV1.15B25,2013-12-25 23:05:00,
2013-12-25 23:10:00,35.5,33.4,29.12,South,181,5.0,6.0,92,0.00,,,0.00,0,WeatherCatV1.15B25,2013-12-25 23:10:00,
2013-12-25 23:15:00,35.3,33.2,29.12,South,181,5.0,9.0,92,0.00,,,0.00,0,WeatherCatV1.15B25,2013-12-25 23:15:00,
2013-12-25 23:20:00,35.5,33.7,29.12,South,185,5.0,6.0,93,0.00,,,0.00,0,WeatherCatV1.15B25,2013-12-25 23:20:00,
2013-12-25 23:25:00,35.7,33.9,29.12,SSW,195,4.0,7.0,93,0.00,,,0.00,0,WeatherCatV1.15B25,2013-12-25 23:25:00,
2013-12-25 23:30:00,36.0,34.4,29.12,SSW,201,5.0,6.0,94,0.00,,,0.00,0,WeatherCatV1.15B25,2013-12-25 23:30:00,
2013-12-25 23:35:00,36.1,34.3,29.12,SSW,195,5.0,7.0,93,0.00,,,0.00,0,WeatherCatV1.15B25,2013-12-25 23:35:00,
2013-12-25 23:40:00,36.2,34.4,29.12,SSW,197,5.0,5.0,93,0.00,,,0.00,0,WeatherCatV1.15B25,2013-12-25 23:40:00,
2013-12-25 23:45:00,36.1,34.3,29.12,SSW,196,4.0,5.0,93,0.00,,,0.00,0,WeatherCatV1.15B25,2013-12-25 23:45:00,
2013-12-25 23:50:00,36.0,34.2,29.12,SSW,193,2.0,3.0,93,0.00,,,0.00,0,WeatherCatV1.15B25,2013-12-25 23:50:00,
2013-12-25 23:55:00,35.8,33.7,29.12,SSW,192,2.0,3.0,92,0.00,,,0.00,0,WeatherCatV1.15B25,2013-12-25 23:55:00,